EW1587 Weather Reports


Display with metric or nautical units.
time (UTC)temp
F
wind
direction
speed
MPH
gust
MPH
rain 1hr
in
rain 24hr
in
rain mn
in
humidity
%
barometer
mb
20260903051553 72 89 0.0 3.0 0.00 0.00 0.00 81 1009.8
20260903051051 72 81 1.0 4.0 0.00 0.00 0.00 81 1009.9
20260903050555 72 79 0.0 4.0 0.00 0.00 0.00 81 1010.0
20260903050050 72 67 1.0 4.0 0.00 0.00 0.00 81 1009.9
20260903045549 72 89 2.0 4.0 0.00 0.00 0.00 80 1010.0
20260903045048 72 111 1.0 4.0 0.00 0.00 0.00 81 1009.9
20260903044548 72 60 0.0 4.0 0.00 0.00 0.00 81 1010.0
20260903044048 72 73 0.0 4.0 0.00 0.00 0.00 80 1010.0
20260903043549 72 82 1.0 3.0 0.00 0.00 0.00 81 1010.0
20260903043048 72 79 0.0 3.0 0.00 0.00 0.00 81 1010.0
20260903042550 71 75 0.0 2.0 0.00 0.00 0.00 82 1010.0
20260903042051 71 47 0.0 2.0 0.00 0.00 0.00 82 1010.1
20260903041548 71 86 0.0 2.0 0.00 0.00 0.00 83 1010.2
20260903041049 71 90 0.0 2.0 0.00 0.00 0.00 83 1010.2
20260903040550 71 82 0.0 3.0 0.00 0.00 0.00 83 1010.2
20260903040048 71 77 1.0 3.0 0.00 0.00 0.00 83 1010.2
20260903035546 71 78 2.0 4.0 0.00 0.00 0.00 83 1010.2
20260903035049 71 82 0.0 2.0 0.00 0.00 0.00 82 1010.1
20260903034555 71 56 0.0 2.0 0.00 0.00 0.00 82 1010.2
20260903034046 71 77 0.0 2.0 0.00 0.00 0.00 82 1010.2
20260903033548 72 82 1.0 2.0 0.00 0.00 0.00 81 1010.2
20260903033046 72 82 0.0 2.0 0.00 0.00 0.00 80 1010.2
20260903032547 72 86 0.0 2.0 0.00 0.00 0.00 79 1010.2
20260903032043 73 97 0.0 4.0 0.00 0.00 0.00 78 1010.2
20260903031547 73 90 0.0 4.0 0.00 0.00 0.00 77 1010.1
20260903031044 73 94 1.0 3.0 0.00 0.00 0.00 77 1010.2
20260903030546 73 98 1.0 3.0 0.00 0.00 0.00 77 1010.1
20260903030043 73 85 0.0 3.0 0.00 0.00 0.00 76 1010.2
20260903025543 73 78 1.0 4.0 0.00 0.00 0.00 77 1010.3
20260903025044 73 79 1.0 3.0 0.00 0.00 0.00 78 1010.3
20260903024541 73 85 0.0 2.0 0.00 0.00 0.00 78 1010.2
20260903024041 73 82 0.0 2.0 0.00 0.00 0.00 77 1010.2
20260903023545 73 81 0.0 2.0 0.00 0.00 0.00 77 1010.2
20260903023040 74 72 0.0 3.0 0.00 0.00 0.00 76 1010.1
20260903022539 74 97 1.0 3.0 0.00 0.00 0.00 76 1010.1
20260903022041 74 86 0.0 2.0 0.00 0.00 0.00 75 1010.2
20260903021538 74 92 0.0 1.0 0.00 0.00 0.00 75 1010.1
20260903021038 75 97 0.0 2.0 0.00 0.00 0.00 74 1010.1
20260903020540 75 91 0.0 3.0 0.00 0.00 0.00 74 1010.1
20260903020050 74 93 1.0 3.0 0.00 0.00 0.00 74 1010.0
20260903015639 74 96 0.0 2.0 0.00 0.00 0.00 76 1010.0
20260903015040 74 85 0.0 1.0 0.00 0.00 0.00 77 1010.0
20260903014536 74 78 0.0 1.0 0.00 0.00 0.00 76 1010.0
20260903014034 74 78 0.0 1.0 0.00 0.00 0.00 76 1009.9
20260903013535 75 72 0.0 1.0 0.00 0.00 0.00 74 1009.8
20260903013034 76 68 0.0 1.0 0.00 0.00 0.00 73 1009.8
20260903012535 77 69 0.0 1.0 0.00 0.00 0.00 70 1009.7
20260903012036 77 86 0.0 1.0 0.00 0.00 0.00 68 1009.7
20260903011538 77 95 0.0 1.0 0.00 0.00 0.00 68 1009.7
20260903011032 77 89 0.0 2.0 0.00 0.00 0.00 67 1009.6
20260903010532 78 89 0.0 2.0 0.00 0.00 0.00 67 1009.6
20260903010031 78 103 0.0 2.0 0.00 0.00 0.00 66 1009.5
20260903005531 78 86 0.0 2.0 0.00 0.00 0.00 66 1009.5
20260903005032 79 111 0.0 1.0 0.00 0.00 0.00 65 1009.5
20260903004530 80 101 0.0 1.0 0.00 0.00 0.00 64 1009.5
20260903004030 80 101 0.0 1.0 0.00 0.00 0.00 63 1009.4
20260903003528 82 105 0.0 1.0 0.00 0.00 0.00 62 1009.4
20260903003028 84 64 0.0 1.0 0.00 0.00 0.00 61 1009.5
20260903002630 85 67 0.0 1.0 0.00 0.00 0.00 56 1009.6
20260903002028 87 152 0.0 0.0 0.00 0.00 0.00 51 1009.6
20260903001527 88 152 0.0 1.0 0.00 0.00 0.00 51 1009.5
20260903001033 88 127 0.0 1.0 0.00 0.00 0.00 51 1009.4
20260903000527 88 166 0.0 1.0 0.00 0.00 0.00 51 1009.4
20260903000027 88 122 0.0 1.0 0.00 0.00 0.00 51 1009.4
20260902235526 88 146 0.0 1.0 0.00 0.00 0.00 50 1009.6
20260902235025 88 175 0.0 2.0 0.00 0.00 0.00 51 1009.4
20260902234525 88 118 0.0 2.0 0.00 0.00 0.00 50 1009.4
20260902234025 89 111 0.0 3.0 0.00 0.00 0.00 49 1009.4
20260902233525 89 124 0.0 4.0 0.00 0.00 0.00 50 1009.5
20260902233025 89 204 0.0 2.0 0.00 0.00 0.00 49 1009.4
20260902232525 88 179 0.0 1.0 0.00 0.00 0.00 50 1009.4
20260902232026 87 123 0.0 2.0 0.00 0.00 0.00 51 1009.4
20260902231523 86 105 0.0 3.0 0.00 0.00 0.00 50 1009.3
20260902231022 87 68 0.0 5.0 0.00 0.00 0.00 49 1009.4
20260902230523 87 99 2.0 5.0 0.00 0.00 0.00 48 1009.5
20260902230023 87 118 0.0 4.0 0.00 0.00 0.00 50 1009.5
20260902225624 87 235 0.0 5.0 0.00 0.00 0.00 51 1009.5
20260902225023 86 110 0.0 4.0 0.00 0.00 0.00 51 1009.5
20260902224520 86 95 0.0 4.0 0.00 0.00 0.00 51 1009.5
20260902224019 87 110 1.0 4.0 0.00 0.00 0.00 48 1009.5
20260902223519 88 105 0.0 3.0 0.00 0.00 0.00 48 1009.6
20260902223027 88 53 0.0 2.0 0.00 0.00 0.00 47 1009.7
20260902222518 89 125 0.0 3.0 0.00 0.00 0.00 46 1009.6
20260902222017 89 61 0.0 3.0 0.00 0.00 0.00 47 1009.7
20260902221518 88 335 0.0 2.0 0.00 0.00 0.00 49 1009.6
20260902221015 88 110 0.0 3.0 0.00 0.00 0.00 50 1009.6
20260902220514 87 259 0.0 5.0 0.00 0.00 0.00 51 1009.7
20260902220020 85 253 0.0 5.0 0.00 0.00 0.00 53 1009.7
20260902215514 85 111 2.0 4.0 0.00 0.00 0.00 53 1009.7
20260902215013 84 64 0.0 5.0 0.00 0.00 0.00 54 1009.7
20260902214513 84 92 1.0 6.0 0.00 0.00 0.00 53 1009.8
20260902214012 84 96 1.0 6.0 0.00 0.00 0.00 53 1009.8
20260902213511 85 114 2.0 6.0 0.00 0.00 0.00 53 1009.9
20260902213011 85 120 1.0 5.0 0.00 0.00 0.00 53 1009.9
20260902212511 84 119 1.0 4.0 0.00 0.00 0.00 53 1009.9
20260902212011 84 88 1.0 4.0 0.00 0.00 0.00 53 1010.0
20260902211510 84 114 1.0 5.0 0.00 0.00 0.00 54 1010.0
20260902211011 84 110 2.0 6.0 0.00 0.00 0.00 53 1010.1
20260902210509 84 71 3.0 5.0 0.00 0.00 0.00 53 1010.1
20260902210010 85 91 3.0 6.0 0.00 0.00 0.00 52 1010.1
20260902205510 85 98 3.0 6.0 0.00 0.00 0.00 52 1010.2
20260902205008 85 156 1.0 6.0 0.00 0.00 0.00 50 1010.2
20260902204509 86 84 2.0 5.0 0.00 0.00 0.00 50 1010.1
20260902204006 86 158 1.0 5.0 0.00 0.00 0.00 50 1010.1
20260902203508 87 99 2.0 4.0 0.00 0.00 0.00 49 1010.3
20260902203006 87 153 0.0 3.0 0.00 0.00 0.00 51 1010.3
20260902202505 87 20 0.0 5.0 0.00 0.00 0.00 50 1010.3
20260902202005 86 219 1.0 6.0 0.00 0.00 0.00 48 1010.3
20260902201511 86 172 0.0 6.0 0.00 0.00 0.00 54 1010.3
20260902201002 86 295 0.0 6.0 0.00 0.00 0.00 54 1010.4
20260902200501 85 72 1.0 6.0 0.00 0.00 0.00 56 1010.5
20260902200101 85 127 2.0 5.0 0.00 0.00 0.00 55 1010.4
20260902195559 84 124 0.0 6.0 0.00 0.00 0.00 56 1010.4
20260902195057 83 223 1.0 8.0 0.00 0.00 0.00 57 1010.4
20260902194602 83 117 2.0 8.0 0.00 0.00 0.00 57 1010.5
20260902194057 83 113 5.0 9.0 0.00 0.00 0.00 57 1010.5
20260902193556 83 68 4.0 9.0 0.00 0.00 0.00 56 1010.5
20260902193059 83 77 0.0 6.0 0.00 0.00 0.00 58 1010.7
20260902192555 84 56 2.0 6.0 0.00 0.00 0.00 57 1010.7
20260902192056 84 65 1.0 5.0 0.00 0.00 0.00 57 1010.7
20260902191554 84 115 0.0 4.0 0.00 0.00 0.00 59 1010.8
20260902191052 83 122 0.0 4.0 0.00 0.00 0.00 59 1010.7
20260902190551 82 109 1.0 4.0 0.00 0.00 0.00 60 1010.8
20260902190050 82 58 0.0 4.0 0.00 0.00 0.00 58 1010.9
20260902185550 82 67 0.0 5.0 0.00 0.00 0.00 60 1010.9
20260902185051 81 93 2.0 8.0 0.00 0.00 0.00 60 1011.1
20260902184551 81 69 3.0 8.0 0.00 0.00 0.00 60 1011.1
20260902184051 82 34 4.0 7.0 0.00 0.00 0.00 58 1011.2
20260902183547 82 73 1.0 6.0 0.00 0.00 0.00 60 1011.3
20260902183047 81 174 0.0 5.0 0.00 0.00 0.00 60 1011.3
20260902182545 81 96 3.0 5.0 0.00 0.00 0.00 62 1011.4
20260902182045 80 61 0.0 5.0 0.00 0.00 0.00 61 1011.4
20260902181553 80 18 0.0 5.0 0.00 0.00 0.00 62 1011.4
20260902181046 80 101 1.0 7.0 0.00 0.00 0.00 63 1011.4
20260902180545 80 173 2.0 9.0 0.00 0.00 0.00 60 1011.4
20260902180045 80 115 4.0 9.0 0.00 0.00 0.00 64 1011.4
20260902175544 80 117 4.0 8.0 0.00 0.00 0.00 59 1011.4
20260902175047 81 84 3.0 6.0 0.00 0.00 0.00 60 1011.5
20260902174547 81 78 2.0 6.0 0.00 0.00 0.00 61 1011.6
20260902174044 81 122 0.0 5.0 0.00 0.00 0.00 60 1011.6
20260902173543 81 101 1.0 5.0 0.00 0.00 0.00 60 1011.7
20260902173046 81 214 0.0 6.0 0.00 0.00 0.00 59 1011.7
20260902172541 81 72 1.0 6.0 0.00 0.00 0.00 64 1011.8
20260902172040 81 82 1.0 5.0 0.00 0.00 0.00 64 1011.8
20260902171548 80 160 0.0 5.0 0.00 0.00 0.00 65 1011.8
20260902171038 79 109 1.0 5.0 0.00 0.00 0.00 66 1011.8
20260902170536 79 85 0.0 4.0 0.00 0.00 0.00 70 1011.8
20260902170035 77 187 0.0 3.0 0.00 0.00 0.00 72 1012.1
20260902165534 77 103 1.0 5.0 0.00 0.00 0.00 71 1012.2
20260902165033 77 92 1.0 5.0 0.00 0.00 0.00 71 1012.1
20260902164533 77 67 2.0 5.0 0.00 0.00 0.00 69 1012.1
20260902164030 76 50 0.0 5.0 0.00 0.00 0.00 70 1012.0
20260902163531 76 103 3.0 6.0 0.00 0.00 0.00 69 1011.9
20260902163030 76 82 3.0 6.0 0.00 0.00 0.00 70 1011.9
20260902162528 76 110 3.0 6.0 0.00 0.00 0.00 71 1011.9
20260902162028 76 118 0.0 3.0 0.00 0.00 0.00 72 1012.1
20260902161528 76 96 1.0 4.0 0.00 0.00 0.00 72 1011.9
20260902161030 76 110 1.0 4.0 0.00 0.00 0.00 72 1012.0
20260902160527 76 51 0.0 6.0 0.00 0.00 0.00 71 1012.0
20260902160026 76 91 2.0 5.0 0.00 0.00 0.00 74 1011.9
20260902155525 75 20 0.0 3.0 0.00 0.00 0.00 75 1012.0
20260902155025 75 104 0.0 3.0 0.00 0.00 0.00 75 1011.9
20260902154527 75 65 0.0 1.0 0.00 0.00 0.00 75 1012.0
20260902154024 75 50 0.0 1.0 0.00 0.00 0.00 74 1012.0
20260902153523 75 65 0.0 1.0 0.00 0.00 0.00 78 1012.1
20260902153021 74 231 0.0 1.0 0.00 0.00 0.00 80 1012.1
20260902152520 73 298 0.0 2.0 0.00 0.00 0.00 80 1012.2
20260902152020 72 294 0.0 3.0 0.00 0.00 0.00 81 1012.0
20260902151521 72 83 0.0 3.0 0.00 0.00 0.00 80 1011.7
20260902151020 72 77 0.0 2.0 0.00 0.00 0.00 80 1011.6
20260902150520 72 104 0.0 3.0 0.00 0.00 0.00 79 1011.7
20260902150020 73 81 0.0 3.0 0.00 0.00 0.00 78 1011.7
20260902145519 73 92 0.0 1.0 0.00 0.00 0.00 79 1011.5
20260902145038 72 189 0.0 2.0 0.00 0.00 0.00 80 1011.5
20260902144516 72 134 0.0 2.0 0.00 0.00 0.00 79 1011.7
20260902144017 72 175 0.0 2.0 0.00 0.00 0.00 80 1012.0
20260902143516 72 101 0.0 3.0 0.00 0.00 0.00 80 1011.8
20260902143016 72 139 0.0 3.0 0.00 0.00 0.00 80 1011.8
20260902142516 72 187 0.0 3.0 0.00 0.00 0.00 79 1011.9
20260902142016 72 75 0.0 4.0 0.00 0.00 0.00 80 1012.0
20260902141515 72 201 1.0 4.0 0.00 0.00 0.00 80 1012.0
20260902141016 72 122 0.0 2.0 0.00 0.00 0.00 81 1012.0
20260902140514 71 133 0.0 2.0 0.00 0.00 0.00 82 1012.0
20260902140013 71 143 0.0 4.0 0.00 0.00 0.00 82 1012.0
20260902135539 71 105 1.0 3.0 0.00 0.00 0.00 81 1011.9
20260902135008 71 122 0.0 3.0 0.00 0.00 0.00 83 1012.1
20260902134520 71 99 0.0 4.0 0.00 0.00 0.00 81 1012.1
20260902134007 71 210 0.0 4.0 0.00 0.00 0.00 83 1012.0
20260902133505 70 67 0.0 2.0 0.00 0.00 0.00 83 1012.1
20260902133004 69 101 0.0 3.0 0.00 0.00 0.00 85 1012.3
20260902132507 69 88 1.0 3.0 0.00 0.00 0.00 84 1012.4
20260902132003 69 92 0.0 2.0 0.00 0.00 0.00 86 1012.4
20260902131503 68 104 0.0 5.0 0.00 0.00 0.00 86 1012.2
20260902131003 68 158 1.0 5.0 0.00 0.00 0.00 87 1012.1
20260902130503 67 82 0.0 4.0 0.00 0.00 0.00 89 1012.2
20260902130002 66 105 0.0 5.0 0.00 0.00 0.00 90 1012.2
20260902125557 66 94 1.0 5.0 0.00 0.00 0.00 90 1012.2
20260902125057 65 100 1.0 3.0 0.00 0.00 0.00 93 1012.1
20260902124604 64 86 0.0 2.0 0.00 0.00 0.00 95 1012.1
20260902124055 64 105 0.0 1.0 0.00 0.00 0.00 95 1012.1
20260902123629 63 82 0.0 3.0 0.00 0.00 0.00 94 1012.1
20260902123104 64 93 0.0 3.0 0.00 0.00 0.00 93 1012.0
20260902122550 64 64 1.0 3.0 0.00 0.00 0.00 93 1012.0
20260902122049 64 64 0.0 3.0 0.00 0.00 0.00 93 1012.2
20260902121548 64 65 2.0 3.0 0.00 0.00 0.00 93 1012.1
20260902121049 64 75 0.0 1.0 0.00 0.00 0.00 92 1012.0
20260902120530 64 94 0.0 1.0 0.00 0.00 0.00 92 1011.9
20260902120048 64 108 0.0 1.0 0.00 0.00 0.00 92 1011.9
20260902115546 64 94 0.0 1.0 0.00 0.00 0.00 92 1011.9
20260902115046 64 79 0.0 1.0 0.00 0.00 0.00 91 1011.9
20260902114553 64 100 0.0 1.0 0.00 0.00 0.00 91 1011.9
20260902114046 64 89 0.0 1.0 0.00 0.00 0.00 91 1011.9
20260902113546 65 79 0.0 1.0 0.00 0.00 0.00 91 1011.8
20260902113044 65 101 0.0 1.0 0.00 0.00 0.00 90 1011.9
20260902112543 65 93 0.0 1.0 0.00 0.00 0.00 90 1011.9
20260902112046 65 82 0.0 1.0 0.00 0.00 0.00 90 1012.0
20260902111546 65 75 0.0 2.0 0.00 0.00 0.00 89 1012.2
20260902111041 65 77 0.0 2.0 0.00 0.00 0.00 89 1012.1
20260902110540 65 226 0.0 1.0 0.00 0.00 0.00 89 1012.0
20260902110057 66 75 0.0 1.0 0.00 0.00 0.00 89 1011.9
20260902105540 66 77 0.0 0.0 0.00 0.00 0.00 89 1012.0
20260902105039 66 88 0.0 1.0 0.00 0.00 0.00 88 1012.0
20260902104539 66 90 0.0 1.0 0.00 0.00 0.00 88 1012.1
20260902104041 66 79 0.0 1.0 0.00 0.00 0.00 87 1012.2
20260902103638 66 274 0.0 3.0 0.00 0.00 0.00 87 1012.2
20260902103040 66 130 0.0 6.0 0.00 0.00 0.00 88 1012.2
20260902102542 66 177 2.0 6.0 0.00 0.00 0.00 88 1012.3
20260902102038 65 269 0.0 5.0 0.00 0.00 0.00 88 1012.4
20260902101540 65 248 0.0 1.0 0.00 0.00 0.00 87 1012.5
20260902101037 65 278 0.0 1.0 0.00 0.00 0.00 87 1012.4
20260902100541 66 232 0.0 1.0 0.00 0.00 0.00 86 1012.3
20260902100037 66 239 0.0 0.0 0.00 0.00 0.00 86 1012.4
20260902095537 66 239 0.0 0.0 0.00 0.00 0.00 85 1012.3
20260902095034 66 50 0.0 0.0 0.00 0.00 0.00 85 1012.0
20260902094542 66 50 0.0 0.0 0.00 0.00 0.00 84 1011.8
20260902094033 66 50 0.0 0.0 0.00 0.00 0.00 84 1011.6
20260902093532 66 50 0.0 3.0 0.00 0.00 0.00 84 1011.7
20260902093033 66 50 0.0 4.0 0.00 0.00 0.00 84 1011.6
20260902092533 66 58 3.0 5.0 0.00 0.00 0.00 84 1011.4
20260902092036 67 84 0.0 5.0 0.00 0.00 0.00 83 1011.3
20260902091533 67 68 2.0 4.0 0.00 0.00 0.00 81 1011.1
20260902091033 67 60 0.0 2.0 0.00 0.00 0.00 81 1011.1
20260902090533 67 77 0.0 3.0 0.00 0.00 0.00 81 1011.2
20260902090034 67 83 0.0 3.0 0.00 0.00 0.00 81 1011.1
20260902085531 67 96 1.0 2.0 0.00 0.00 0.00 81 1011.0
20260902085030 67 86 0.0 3.0 0.00 0.00 0.00 81 1011.1
20260902084538 67 101 1.0 3.0 0.00 0.00 0.00 81 1011.1
20260902084031 67 95 1.0 3.0 0.00 0.00 0.00 82 1011.2
20260902083531 67 84 0.0 4.0 0.00 0.00 0.00 81 1011.1
20260902083028 67 86 1.0 4.0 0.00 0.00 0.00 81 1011.5
20260902082531 67 97 0.0 2.0 0.00 0.00 0.00 81 1011.8
20260902082027 67 95 0.0 4.0 0.00 0.00 0.00 81 1011.9
20260902081527 67 54 0.0 4.0 0.00 0.00 0.00 82 1011.7
20260902081029 67 91 0.0 4.0 0.00 0.00 0.00 82 1011.9
20260902080527 67 93 0.0 4.0 0.00 0.00 0.00 84 1011.9
20260902080048 66 94 0.0 2.0 0.00 0.00 0.00 84 1011.8
20260902075525 67 89 0.0 2.0 0.00 0.00 0.00 84 1011.7
20260902075025 67 92 0.0 2.0 0.00 0.00 0.00 84 1011.8
20260902074526 67 88 1.0 2.0 0.00 0.00 0.00 84 1011.7
20260902074026 66 93 0.0 2.0 0.00 0.00 0.00 84 1011.7
20260902073525 66 188 0.0 2.0 0.00 0.00 0.00 84 1011.7
20260902073025 66 151 0.0 4.0 0.00 0.00 0.00 84 1011.7
20260902072525 67 155 0.0 4.0 0.00 0.00 0.00 84 1011.5
20260902072024 67 309 0.0 3.0 0.00 0.00 0.00 83 1011.5
20260902071533 67 82 0.0 1.0 0.00 0.00 0.00 83 1011.5
20260902071026 67 133 0.0 2.0 0.00 0.00 0.00 82 1011.9
20260902070522 67 105 0.0 2.0 0.00 0.00 0.00 82 1011.9
20260902070025 67 96 0.0 1.0 0.00 0.00 0.00 82 1011.9
20260902065521 67 85 0.0 1.0 0.00 0.00 0.00 83 1011.8
20260902065021 67 96 0.0 2.0 0.00 0.00 0.00 83 1011.8
20260902064524 68 75 0.0 2.0 0.00 0.00 0.00 82 1011.9
20260902064018 68 89 0.0 2.0 0.00 0.00 0.00 79 1012.1
20260902063518 68 84 0.0 1.0 0.00 0.00 0.00 77 1012.3
20260902063029 68 100 0.0 0.0 0.00 0.00 0.00 76 1012.4
20260902062518 69 101 0.0 0.0 0.00 0.00 0.00 75 1012.4
20260902062021 69 101 0.0 3.0 0.00 0.00 0.00 75 1012.5
20260902061530 69 101 0.0 3.0 0.00 0.00 0.00 76 1012.4
20260902061018 68 96 0.0 2.0 0.00 0.00 0.00 76 1012.3
20260902060517 68 123 0.0 2.0 0.00 0.00 0.00 79 1012.3
20260902060020 68 92 0.0 2.0 0.00 0.00 0.00 79 1012.1
20260902055516 68 81 0.0 4.0 0.00 0.00 0.00 79 1011.9
20260902055016 68 63 3.0 5.0 0.00 0.00 0.00 79 1011.8
20260902054520 68 60 3.0 5.0 0.00 0.00 0.00 79 1012.0
20260902054015 67 65 3.0 5.0 0.00 0.00 0.00 81 1012.2
20260902053514 67 56 1.0 4.0 0.00 0.00 0.00 82 1012.2
20260902053018 68 61 3.0 4.0 0.00 0.00 0.00 81 1012.2
20260902052513 69 58 0.0 5.0 0.00 0.00 0.00 78 1012.2
20260902052009 70 65 1.0 5.0 0.00 0.00 0.00 76 1012.4